• Em Portugal
  • Lista de países
  • Para 7 dias
  • Temperatura da água
  • Mapas de satélite
  • Mapa do tempo
  • Widgets de tempo
  • user-avatar
    Iniciar Sessão

    Previsão horária em Halhgol

    Hoje, 20 Junho, Quarta-feira

    Tempo Temperatura Precipitação Vento Pressão Humidade
    00:00 +12°C° 0,1 mm 3 m/s 694 mmHg 78%
    01:00 +13°C° 0,1 mm 2 m/s 694 mmHg 80%
    02:00 +12°C° 0 mm 2 m/s 695 mmHg 78%
    03:00 +12°C° 0 mm 2 m/s 695 mmHg 79%
    04:00 +12°C° 0 mm 2 m/s 695 mmHg 80%
    05:00 +10°C° 0 mm 3 m/s 695 mmHg 80%
    06:00 +12°C° 0 mm 4 m/s 695 mmHg 72%
    07:00 +14°C° 0 mm 4 m/s 696 mmHg 63%
    08:00 +16°C° 0 mm 5 m/s 696 mmHg 55%
    09:00 +19°C° 0 mm 6 m/s 696 mmHg 50%
    10:00 +20°C° 0 mm 6 m/s 696 mmHg 46%
    11:00 +21°C° 0 mm 6 m/s 696 mmHg 42%
    12:00 +22°C° 0 mm 6 m/s 696 mmHg 40%
    13:00 +22°C° 0 mm 6 m/s 696 mmHg 39%
    14:00 +23°C° 0 mm 5 m/s 696 mmHg 36%
    15:00 +23°C° 0 mm 5 m/s 696 mmHg 37%
    16:00 +23°C° 0 mm 5 m/s 696 mmHg 37%
    17:00 +23°C° 0 mm 5 m/s 696 mmHg 38%
    18:00 +21°C° 0 mm 4 m/s 695 mmHg 43%
    19:00 +20°C° 0 mm 3 m/s 695 mmHg 48%
    20:00 +18°C° 0 mm 2 m/s 695 mmHg 53%
    21:00 +18°C° 0 mm 2 m/s 695 mmHg 52%
    22:00 +17°C° 0 mm 2 m/s 695 mmHg 51%
    23:00 +17°C° 0 mm 2 m/s 695 mmHg 50%

    Amanhã, 21 Junho, Quinta-feira

    Tempo Temperatura Precipitação Vento Pressão Humidade
    00:00 +16°C° 0 mm 2 m/s 695 mmHg 51%
    01:00 +16°C° 0 mm 3 m/s 695 mmHg 51%
    02:00 +16°C° 0 mm 3 m/s 695 mmHg 52%
    03:00 +14°C° 0 mm 3 m/s 695 mmHg 54%
    04:00 +14°C° 0 mm 3 m/s 695 mmHg 57%
    05:00 +14°C° 0 mm 3 m/s 695 mmHg 59%
    06:00 +17°C° 0 mm 3 m/s 695 mmHg 55%
    07:00 +19°C° 0 mm 3 m/s 696 mmHg 51%
    08:00 +22°C° 0 mm 3 m/s 696 mmHg 47%
    09:00 +24°C° 0 mm 3 m/s 696 mmHg 42%
    10:00 +26°C° 0 mm 3 m/s 696 mmHg 36%
    11:00 +27°C° 0 mm 3 m/s 696 mmHg 31%
    12:00 +28°C° 0 mm 2 m/s 695 mmHg 30%
    13:00 +28°C° 0 mm 2 m/s 695 mmHg 28%
    14:00 +29°C° 0 mm 2 m/s 695 mmHg 27%
    15:00 +29°C° 0 mm 2 m/s 695 mmHg 27%
    16:00 +29°C° 0 mm 2 m/s 694 mmHg 27%
    17:00 +29°C° 0 mm 2 m/s 694 mmHg 28%
    18:00 +27°C° 0 mm 2 m/s 694 mmHg 32%
    19:00 +25°C° 0 mm 2 m/s 693 mmHg 35%
    20:00 +23°C° 0 mm 1 m/s 693 mmHg 39%
    21:00 +23°C° 0 mm 2 m/s 693 mmHg 40%
    22:00 +21°C° 0 mm 3 m/s 693 mmHg 41%
    23:00 +20°C° 0 mm 4 m/s 693 mmHg 41%

    Depois de amanhã, 22 Junho, Sexta-feira

    Tempo Temperatura Precipitação Vento Pressão Humidade
    00:00 +20°C° 0 mm 4 m/s 692 mmHg 43%
    01:00 +20°C° 0 mm 5 m/s 692 mmHg 45%
    02:00 +20°C° 0 mm 5 m/s 692 mmHg 47%
    03:00 +20°C° 0 mm 5 m/s 691 mmHg 50%
    04:00 +19°C° 0 mm 5 m/s 691 mmHg 54%
    05:00 +19°C° 0 mm 5 m/s 691 mmHg 57%
    06:00 +20°C° 0,1 mm 4 m/s 691 mmHg 56%
    07:00 +21°C° 0,1 mm 4 m/s 691 mmHg 55%
    08:00 +22°C° 0,1 mm 3 m/s 691 mmHg 55%
    09:00 +24°C° 0 mm 3 m/s 691 mmHg 51%
    10:00 +26°C° 0 mm 3 m/s 691 mmHg 47%
    11:00 +27°C° 0 mm 3 m/s 691 mmHg 44%
    12:00 +28°C° 0,1 mm 3 m/s 691 mmHg 43%
    13:00 +28°C° 0,1 mm 4 m/s 691 mmHg 43%
    14:00 +28°C° 0,1 mm 4 m/s 691 mmHg 42%
    15:00 +27°C° 0,2 mm 4 m/s 691 mmHg 50%
    16:00 +25°C° 0,2 mm 3 m/s 691 mmHg 58%
    17:00 +23°C° 0,2 mm 2 m/s 691 mmHg 65%
    18:00 +23°C° 0 mm 2 m/s 691 mmHg 67%
    19:00 +21°C° 0 mm 2 m/s 691 mmHg 69%
    20:00 +21°C° 0 mm 1 m/s 691 mmHg 71%
    21:00 +21°C° 0 mm 1 m/s 691 mmHg 71%
    22:00 +20°C° 0 mm 1 m/s 692 mmHg 72%
    23:00 +19°C° 0 mm 1 m/s 692 mmHg 73%

    23 Junho, Sábado

    Tempo Temperatura Precipitação Vento Pressão Humidade
    00:00 +19°C° 0 mm 1 m/s 692 mmHg 73%
    01:00 +19°C° 0 mm 1 m/s 692 mmHg 73%
    02:00 +19°C° 0 mm 1 m/s 692 mmHg 73%
    03:00 +19°C° 0 mm 1 m/s 692 mmHg 74%
    04:00 +18°C° 0 mm 1 m/s 692 mmHg 74%
    05:00 +18°C° 0 mm 1 m/s 693 mmHg 75%
    06:00 +20°C° 0 mm 1 m/s 693 mmHg 69%
    07:00 +22°C° 0 mm 1 m/s 694 mmHg 62%
    08:00 +24°C° 0 mm 1 m/s 694 mmHg 56%
    09:00 +26°C° 0 mm 1 m/s 694 mmHg 50%
    10:00 +27°C° 0 mm 1 m/s 694 mmHg 45%
    11:00 +28°C° 0 mm 1 m/s 695 mmHg 40%
    12:00 +29°C° 0 mm 1 m/s 694 mmHg 37%
    13:00 +30°C° 0 mm 1 m/s 694 mmHg 35%
    14:00 +30°C° 0 mm 1 m/s 694 mmHg 33%
    15:00 +30°C° 0 mm 1 m/s 694 mmHg 34%
    16:00 +30°C° 0 mm 2 m/s 694 mmHg 35%
    17:00 +30°C° 0 mm 2 m/s 694 mmHg 36%
    18:00 +28°C° 0 mm 3 m/s 693 mmHg 42%
    19:00 +26°C° 0 mm 4 m/s 693 mmHg 48%
    20:00 +23°C° 0 mm 4 m/s 693 mmHg 54%
    21:00 +23°C° 0 mm 4 m/s 693 mmHg 52%
    22:00 +22°C° 0 mm 5 m/s 693 mmHg 49%
    23:00 +22°C° 0 mm 5 m/s 693 mmHg 47%

    24 Junho, Domingo

    Tempo Temperatura Precipitação Vento Pressão Humidade
    00:00 +21°C° 0,1 mm 5 m/s 693 mmHg 51%
    01:00 +21°C° 0,1 mm 5 m/s 693 mmHg 55%
    02:00 +20°C° 0,1 mm 5 m/s 693 mmHg 58%
    03:00 +20°C° 0 mm 6 m/s 693 mmHg 60%
    04:00 +20°C° 0 mm 6 m/s 693 mmHg 61%
    05:00 +20°C° 0 mm 7 m/s 692 mmHg 62%
    06:00 +20°C° 0,1 mm 8 m/s 693 mmHg 60%
    07:00 +21°C° 0,1 mm 9 m/s 693 mmHg 58%
    08:00 +22°C° 0,1 mm 10 m/s 693 mmHg 57%
    09:00 +23°C° 0 mm 10 m/s 693 mmHg 54%
    10:00 +24°C° 0 mm 11 m/s 693 mmHg 52%
    11:00 +27°C° 0 mm 12 m/s 693 mmHg 49%
    12:00 +27°C° 0,4 mm 12 m/s 692 mmHg 50%
    13:00 +27°C° 0,4 mm 12 m/s 692 mmHg 51%
    14:00 +27°C° 0,4 mm 12 m/s 691 mmHg 52%
    15:00 +26°C° 1,3 mm 11 m/s 691 mmHg 56%
    16:00 +24°C° 1,3 mm 11 m/s 691 mmHg 60%
    17:00 +24°C° 1,3 mm 10 m/s 691 mmHg 64%
    18:00 +22°C° 2 mm 10 m/s 691 mmHg 68%
    19:00 +21°C° 2 mm 9 m/s 691 mmHg 72%
    20:00 +19°C° 2 mm 9 m/s 691 mmHg 77%
    21:00 +18°C° 1,2 mm 9 m/s 691 mmHg 78%
    22:00 +18°C° 1,2 mm 9 m/s 692 mmHg 79%
    23:00 +18°C° 1,2 mm 9 m/s 692 mmHg 80%

    25 Junho, Segunda-feira

    Tempo Temperatura Precipitação Vento Pressão Humidade
    00:00 +17°C° 0 mm 9 m/s 692 mmHg 79%
    01:00 +17°C° 0 mm 9 m/s 691 mmHg 78%
    02:00 +17°C° 0 mm 9 m/s 691 mmHg 77%
    03:00 +16°C° 0 mm 8 m/s 691 mmHg 78%
    04:00 +16°C° 0 mm 7 m/s 691 mmHg 80%
    05:00 +16°C° 0 mm 6 m/s 691 mmHg 81%
    06:00 +17°C° 0,2 mm 6 m/s 691 mmHg 80%
    07:00 +18°C° 0,2 mm 7 m/s 691 mmHg 79%
    08:00 +20°C° 0,2 mm 7 m/s 691 mmHg 77%
    09:00 +21°C° 1,4 mm 7 m/s 691 mmHg 74%
    10:00 +22°C° 1,4 mm 6 m/s 691 mmHg 70%
    11:00 +23°C° 1,4 mm 6 m/s 691 mmHg 66%
    12:00 +24°C° 1,9 mm 6 m/s 691 mmHg 64%
    13:00 +25°C° 1,9 mm 5 m/s 691 mmHg 62%
    14:00 +25°C° 1,9 mm 5 m/s 691 mmHg 61%
    15:00 +25°C° 1 mm 4 m/s 691 mmHg 60%
    16:00 +25°C° 1 mm 4 m/s 691 mmHg 59%
    17:00 +25°C° 1 mm 4 m/s 692 mmHg 58%
    18:00 +24°C° 0,4 mm 3 m/s 692 mmHg 64%
    19:00 +21°C° 0,4 mm 2 m/s 692 mmHg 69%
    20:00 +21°C° 0,4 mm 1 m/s 691 mmHg 74%
    21:00 +19°C° 0,4 mm 2 m/s 692 mmHg 76%
    22:00 +19°C° 0,4 mm 2 m/s 692 mmHg 78%
    23:00 +18°C° 0,4 mm 3 m/s 692 mmHg 80%
    Mostrar mais